UAL2279 KRNO-KSFO

Flight info

Callsign UAL2279
Flight time 0h 46m
Altitude 34000
Route ZEFFR9 MRLET LEGGS BDEGA4
Aircraft A319/M-SDE3FGHIRWY/LB1

Departure

Time 2026-05-03 22:37
Airport Reno Tahoe International Airport (KRNO)

Arrival

Time 2026-05-03 23:23
Airport San Francisco International Airport (KSFO)
Time Latitude Longitude Altitude Speed Heading
2026-05-03 22:02 39.50659 -119.77330 4531 ft 0 kts 342°
2026-05-03 22:26 39.50654 -119.77328 4486 ft 4 kts 342°
2026-05-03 22:27 39.50628 -119.77319 4478 ft 4 kts 351°
2026-05-03 22:27 39.50602 -119.77317 4475 ft 4 kts 23°
2026-05-03 22:27 39.50590 -119.77332 4476 ft 1 kts 91°
2026-05-03 22:27 39.50590 -119.77336 4476 ft 0 kts 91°
2026-05-03 22:30 39.50590 -119.77334 4476 ft 2 kts 91°
2026-05-03 22:30 39.50589 -119.77281 4479 ft 10 kts 91°
2026-05-03 22:30 39.50593 -119.77172 4469 ft 13 kts 69°
2026-05-03 22:31 39.50684 -119.77150 4467 ft 15 kts
2026-05-03 22:31 39.50797 -119.77150 4465 ft 18 kts
2026-05-03 22:31 39.50930 -119.77149 4463 ft 20 kts 360°
2026-05-03 22:31 39.51074 -119.77148 4466 ft 21 kts
2026-05-03 22:32 39.51230 -119.77148 4464 ft 23 kts
2026-05-03 22:32 39.51372 -119.77117 4464 ft 19 kts 63°
2026-05-03 22:32 39.51374 -119.76936 4463 ft 21 kts 90°
2026-05-03 22:32 39.51374 -119.76740 4461 ft 22 kts 90°
2026-05-03 22:33 39.51258 -119.76676 4461 ft 17 kts 180°
2026-05-03 22:33 39.51249 -119.76676 4461 ft 0 kts 180°
2026-05-03 22:36 39.51184 -119.76676 4458 ft 28 kts 180°
2026-05-03 22:36 39.50807 -119.76677 4457 ft 81 kts 180°
2026-05-03 22:36 39.50068 -119.76677 4448 ft 130 kts 181°
2026-05-03 22:36 39.49011 -119.76680 4539 ft 168 kts 180°
2026-05-03 22:37 39.47846 -119.76656 5236 ft 166 kts 178°
2026-05-03 22:37 39.46693 -119.76669 5876 ft 166 kts 182°
2026-05-03 22:37 39.45520 -119.76738 6327 ft 176 kts 181°
2026-05-03 22:37 39.44214 -119.76816 6621 ft 199 kts 181°
2026-05-03 22:38 39.42748 -119.76899 6921 ft 223 kts 181°
2026-05-03 22:38 39.41107 -119.76945 7257 ft 249 kts 180°
2026-05-03 22:38 39.39293 -119.76960 7795 ft 270 kts 180°
2026-05-03 22:38 39.37384 -119.76967 8626 ft 278 kts 179°
2026-05-03 22:39 39.35437 -119.76968 9654 ft 281 kts 179°
2026-05-03 22:39 39.33455 -119.76968 10506 ft 293 kts 179°
2026-05-03 22:39 39.31338 -119.77166 10857 ft 318 kts 189°
2026-05-03 22:39 39.29125 -119.77800 11432 ft 331 kts 192°
2026-05-03 22:40 39.26863 -119.78457 12223 ft 336 kts 192°
2026-05-03 22:40 39.24571 -119.79119 13031 ft 339 kts 191°
2026-05-03 22:40 39.22252 -119.79783 13838 ft 343 kts 191°
2026-05-03 22:40 39.19909 -119.80456 14544 ft 347 kts 191°
2026-05-03 22:41 39.17599 -119.81404 15243 ft 353 kts 205°
2026-05-03 22:41 39.15636 -119.83352 15947 ft 362 kts 226°
2026-05-03 22:41 39.14344 -119.86166 16648 ft 373 kts 248°
2026-05-03 22:41 39.13969 -119.89500 17354 ft 384 kts 271°
2026-05-03 22:42 39.14431 -119.92913 18066 ft 390 kts 279°
2026-05-03 22:42 39.15015 -119.96339 18723 ft 393 kts 279°
2026-05-03 22:42 39.15613 -119.99784 19382 ft 396 kts 279°
2026-05-03 22:42 39.16215 -120.03259 20050 ft 399 kts 279°
2026-05-03 22:43 39.16820 -120.06760 20696 ft 402 kts 279°
2026-05-03 22:43 39.17420 -120.10285 21332 ft 405 kts 279°
2026-05-03 22:43 39.18018 -120.13846 21949 ft 408 kts 278°
2026-05-03 22:43 39.18618 -120.17432 22556 ft 411 kts 278°
2026-05-03 22:44 39.19220 -120.21043 23147 ft 414 kts 278°
2026-05-03 22:44 39.19823 -120.24684 23681 ft 417 kts 278°
2026-05-03 22:44 39.20430 -120.28346 24147 ft 420 kts 278°
2026-05-03 22:44 39.21044 -120.32039 24615 ft 422 kts 278°
2026-05-03 22:45 39.21663 -120.35743 25075 ft 424 kts 278°
2026-05-03 22:45 39.22278 -120.39425 25551 ft 426 kts 278°
2026-05-03 22:45 39.22902 -120.43176 25982 ft 429 kts 278°
2026-05-03 22:45 39.23527 -120.46945 26488 ft 431 kts 278°
2026-05-03 22:46 39.24152 -120.50741 26952 ft 434 kts 278°
2026-05-03 22:46 39.24777 -120.54564 27415 ft 437 kts 278°
2026-05-03 22:46 39.25405 -120.58404 27867 ft 440 kts 278°
2026-05-03 22:46 39.26037 -120.62285 28313 ft 443 kts 278°
2026-05-03 22:47 39.26670 -120.66184 28732 ft 446 kts 278°
2026-05-03 22:47 39.27306 -120.70106 29136 ft 449 kts 278°
2026-05-03 22:47 39.27949 -120.74060 29523 ft 452 kts 278°
2026-05-03 22:47 39.28597 -120.78042 29919 ft 454 kts 278°
2026-05-03 22:48 39.29247 -120.82050 30278 ft 457 kts 278°
2026-05-03 22:48 39.29678 -120.84709 30491 ft 459 kts 278°
2026-05-03 22:48 39.30332 -120.88755 30762 ft 461 kts 278°
2026-05-03 22:48 39.30987 -120.92811 31153 ft 461 kts 278°
2026-05-03 22:49 39.31639 -120.96863 31644 ft 460 kts 278°
2026-05-03 22:49 39.32225 -121.00900 32174 ft 456 kts 273°
2026-05-03 22:49 39.32346 -121.04953 32714 ft 449 kts 263°
2026-05-03 22:49 39.31947 -121.08919 33228 ft 442 kts 253°
2026-05-03 22:50 39.31061 -121.12671 33752 ft 435 kts 244°
2026-05-03 22:50 39.29739 -121.16167 33951 ft 430 kts 236°
2026-05-03 22:50 39.28047 -121.19303 33990 ft 424 kts 230°
2026-05-03 22:51 39.24516 -121.25338 33952 ft 420 kts 230°
2026-05-03 22:51 39.21008 -121.31367 33951 ft 420 kts 230°
2026-05-03 22:52 39.17533 -121.37336 33960 ft 419 kts 230°
2026-05-03 22:52 39.14031 -121.43328 33949 ft 418 kts 230°
2026-05-03 22:53 39.10526 -121.49302 33956 ft 417 kts 230°
2026-05-03 22:53 39.07035 -121.55258 33964 ft 417 kts 230°
2026-05-03 22:54 39.03556 -121.61206 33967 ft 415 kts 230°
2026-05-03 22:54 39.00076 -121.67129 33963 ft 415 kts 230°
2026-05-03 22:55 38.96592 -121.73021 33961 ft 414 kts 230°
2026-05-03 22:55 38.93112 -121.78899 33954 ft 413 kts 230°
2026-05-03 22:56 38.89648 -121.84765 33953 ft 412 kts 230°
2026-05-03 22:56 38.86183 -121.90623 33953 ft 411 kts 230°
2026-05-03 22:57 38.82725 -121.96456 33953 ft 410 kts 230°
2026-05-03 22:57 38.79264 -122.02257 33957 ft 409 kts 230°
2026-05-03 22:58 38.75801 -122.08044 33961 ft 408 kts 230°
2026-05-03 22:58 38.72356 -122.13816 33957 ft 407 kts 230°
2026-05-03 22:59 38.68919 -122.19579 33936 ft 407 kts 230°
2026-05-03 22:59 38.67195 -122.22458 33071 ft 412 kts 230°
2026-05-03 22:59 38.65433 -122.25393 32123 ft 418 kts 230°
2026-05-03 22:59 38.63656 -122.28353 31203 ft 421 kts 230°
2026-05-03 23:00 38.61865 -122.31328 30233 ft 424 kts 230°
2026-05-03 23:00 38.60058 -122.34331 29214 ft 427 kts 230°
2026-05-03 23:00 38.58273 -122.37303 28796 ft 415 kts 230°
2026-05-03 23:00 38.56526 -122.40209 28182 ft 409 kts 230°
2026-05-03 23:01 38.54798 -122.43039 27835 ft 397 kts 227°
2026-05-03 23:01 38.52861 -122.45469 27548 ft 386 kts 218°
2026-05-03 23:01 38.50808 -122.47582 27161 ft 382 kts 217°
2026-05-03 23:01 38.48746 -122.49704 26691 ft 378 kts 217°
2026-05-03 23:02 38.46675 -122.51836 26222 ft 376 kts 217°
2026-05-03 23:02 38.44677 -122.53901 25765 ft 374 kts 217°
2026-05-03 23:02 38.42663 -122.55982 25293 ft 371 kts 217°
2026-05-03 23:02 38.40661 -122.58051 24842 ft 369 kts 217°
2026-05-03 23:03 38.38672 -122.60106 24394 ft 367 kts 217°
2026-05-03 23:03 38.36687 -122.62147 23939 ft 365 kts 217°
2026-05-03 23:03 38.34716 -122.64175 23490 ft 363 kts 217°
2026-05-03 23:03 38.32755 -122.66189 22985 ft 361 kts 217°
2026-05-03 23:04 38.30800 -122.68191 22539 ft 360 kts 217°
2026-05-03 23:04 38.28855 -122.70181 22095 ft 358 kts 217°
2026-05-03 23:04 38.26922 -122.72162 21656 ft 356 kts 217°
2026-05-03 23:04 38.24919 -122.73990 21213 ft 353 kts 208°
2026-05-03 23:05 38.22670 -122.75181 20778 ft 350 kts 195°
2026-05-03 23:05 38.20278 -122.75659 20343 ft 348 kts 182°
2026-05-03 23:05 38.17866 -122.75414 19916 ft 349 kts 170°
2026-05-03 23:05 38.15507 -122.74731 19485 ft 347 kts 169°
2026-05-03 23:06 38.13157 -122.74044 19051 ft 345 kts 169°
2026-05-03 23:06 38.10820 -122.73364 18620 ft 343 kts 169°
2026-05-03 23:06 38.08522 -122.72697 18200 ft 341 kts 169°
2026-05-03 23:06 38.06214 -122.72028 17771 ft 339 kts 169°
2026-05-03 23:07 38.03883 -122.71353 17337 ft 338 kts 169°
2026-05-03 23:07 38.01630 -122.70702 16902 ft 335 kts 169°
2026-05-03 23:07 37.99363 -122.70047 16492 ft 333 kts 169°
2026-05-03 23:07 37.97107 -122.69394 16076 ft 332 kts 168°
2026-05-03 23:08 37.94864 -122.68744 15670 ft 329 kts 168°
2026-05-03 23:08 37.92635 -122.68097 15259 ft 327 kts 168°
2026-05-03 23:08 37.90469 -122.67225 14854 ft 327 kts 158°
2026-05-03 23:08 37.88502 -122.65772 14445 ft 328 kts 146°
2026-05-03 23:09 37.86743 -122.63932 14044 ft 328 kts 143°
2026-05-03 23:09 37.85001 -122.62081 13620 ft 326 kts 143°
2026-05-03 23:09 37.83271 -122.60246 13212 ft 324 kts 143°
2026-05-03 23:09 37.81544 -122.58419 12727 ft 323 kts 143°
2026-05-03 23:10 37.79809 -122.56585 12045 ft 325 kts 142°
2026-05-03 23:10 37.78102 -122.54777 11812 ft 313 kts 142°
2026-05-03 23:10 37.76454 -122.53030 11273 ft 311 kts 143°
2026-05-03 23:10 37.74768 -122.51255 10540 ft 317 kts 142°
2026-05-03 23:11 37.73101 -122.49494 10308 ft 305 kts 142°
2026-05-03 23:11 37.71517 -122.47807 10192 ft 291 kts 142°
2026-05-03 23:11 37.70009 -122.46194 10210 ft 279 kts 142°
2026-05-03 23:11 37.68542 -122.44629 10206 ft 276 kts 143°
2026-05-03 23:12 37.67072 -122.43068 10208 ft 275 kts 143°
2026-05-03 23:12 37.65609 -122.41514 10205 ft 275 kts 143°
2026-05-03 23:12 37.64145 -122.39961 10206 ft 275 kts 143°
2026-05-03 23:12 37.62682 -122.38409 10209 ft 275 kts 143°
2026-05-03 23:13 37.61228 -122.36830 10211 ft 275 kts 144°
2026-05-03 23:13 37.59556 -122.35752 10210 ft 271 kts 163°
2026-05-03 23:13 37.57749 -122.35080 10198 ft 270 kts 166°
2026-05-03 23:13 37.55920 -122.34434 9725 ft 275 kts 166°
2026-05-03 23:14 37.54069 -122.33789 9216 ft 277 kts 165°
2026-05-03 23:14 37.52200 -122.33143 8701 ft 280 kts 166°
2026-05-03 23:14 37.50316 -122.32492 8201 ft 281 kts 166°
2026-05-03 23:14 37.48428 -122.31834 7704 ft 282 kts 163°
2026-05-03 23:15 37.46725 -122.30613 7204 ft 286 kts 139°
2026-05-03 23:15 37.45514 -122.28609 6729 ft 289 kts 126°
2026-05-03 23:15 37.44443 -122.26465 6239 ft 290 kts 124°
2026-05-03 23:15 37.43375 -122.24308 5728 ft 290 kts 124°
2026-05-03 23:16 37.42648 -122.21936 5221 ft 295 kts 100°
2026-05-03 23:16 37.42809 -122.19392 4717 ft 294 kts 74°
2026-05-03 23:16 37.43843 -122.17209 4218 ft 293 kts 46°
2026-05-03 23:16 37.45414 -122.15632 3929 ft 284 kts 36°
2026-05-03 23:17 37.46978 -122.14244 3903 ft 265 kts 36°
2026-05-03 23:17 37.48522 -122.13099 3916 ft 256 kts 18°
2026-05-03 23:17 37.50272 -122.12918 3921 ft 254 kts 350°
2026-05-03 23:17 37.52004 -122.13349 3887 ft 254 kts 343°
2026-05-03 23:18 37.53461 -122.14407 3675 ft 241 kts 306°
2026-05-03 23:18 37.54045 -122.16248 3415 ft 221 kts 268°
2026-05-03 23:18 37.53995 -122.18118 3146 ft 209 kts 271°
2026-05-03 23:18 37.54547 -122.19753 2917 ft 202 kts 300°
2026-05-03 23:19 37.55258 -122.21231 2650 ft 193 kts 294°
2026-05-03 23:19 37.55875 -122.22690 2397 ft 184 kts 293°
2026-05-03 23:19 37.56449 -122.24053 2150 ft 168 kts 294°
2026-05-03 23:19 37.56978 -122.25311 1931 ft 158 kts 294°
2026-05-03 23:20 37.57484 -122.26513 1764 ft 150 kts 294°
2026-05-03 23:20 37.57957 -122.27636 1534 ft 139 kts 294°
2026-05-03 23:20 37.58380 -122.28637 1350 ft 123 kts 294°
2026-05-03 23:20 37.58773 -122.29569 1175 ft 118 kts 293°
2026-05-03 23:21 37.59155 -122.30478 1011 ft 117 kts 294°
2026-05-03 23:21 37.59535 -122.31384 838 ft 117 kts 292°
2026-05-03 23:21 37.59919 -122.32298 683 ft 119 kts 292°
2026-05-03 23:21 37.60310 -122.33228 512 ft 121 kts 291°
2026-05-03 23:22 37.61113 -122.35106 200 ft 122 kts 291°
2026-05-03 23:22 37.61498 -122.36054 36 ft 118 kts 291°
2026-05-03 23:22 37.61820 -122.36834 22 ft 78 kts 298°
2026-05-03 23:23 37.62003 -122.37270 22 ft 45 kts 298°
2026-05-03 23:23 37.62154 -122.37632 22 ft 45 kts 297°
2026-05-03 23:23 37.62234 -122.37923 22 ft 35 kts 270°
2026-05-03 23:23 37.62223 -122.38136 22 ft 8 kts 265°
2026-05-03 23:24 37.62222 -122.38151 22 ft 6 kts 262°
2026-05-03 23:24 37.62161 -122.38213 23 ft 18 kts 208°
2026-05-03 23:24 37.62038 -122.38293 22 ft 19 kts 202°
2026-05-03 23:24 37.61973 -122.38230 24 ft 8 kts 129°
2026-05-03 23:25 37.61916 -122.38229 22 ft 11 kts 206°
2026-05-03 23:25 37.61843 -122.38280 22 ft 13 kts 220°
2026-05-03 23:25 37.61806 -122.38331 24 ft 4 kts 168°
2026-05-03 23:25 37.61780 -122.38300 24 ft 2 kts 134°
2026-05-03 23:26 37.61770 -122.38286 23 ft 0 kts 134°